Weather History for El Centro, CA

Change the Weather History Date:

Tuesday, October 9, 2012

  Actual Average Record
Temperature  
Mean Temperature 76 °F -  
Max Temperature 95 °F 92 °F 109 °F (1996)
Min Temperature 59 °F 64 °F 55 °F (2007)
Cooling Degree Days 11    
Growing Degree Days 26 (Base 50)    
Moisture  
Dew Point 41 °F    
Average Humidity 29    
Maximum Humidity 60    
Minimum Humidity 10    
Precipitation  
Precipitation 0.00 in - - ()
Sea Level Pressure  
Sea Level Pressure 29.87 in    
Wind  
Wind Speed 5 mph (SW)    
Max Wind Speed 18 mph    
Max Gust Speed 24 mph    
Visibility 10 miles    
Events      
Averages and records for this station are not official NWS values.
T = Trace of Precipitation, MM = Missing Value Source: NWS Daily Summary

Daily Weather History Graph

Daily Weather History Graph

Search for Another Location

Airport:

Trip Planner

Search our weather history database for the weather conditions in past years. The results will help you decide how hot, cold, wet, or windy it might be!

Date:

Astronomy

Oct. 09, 2012 Rise Set
Actual Time 6:42 AM PDT 6:16 PM PDT
Civil Twilight 6:18 AM PDT 6:40 PM PDT
Nautical Twilight 5:49 AM PDT 7:09 PM PDT
Astronomical Twilight 5:20 AM PDT 7:37 PM PDT
Moon 12:42 AM PDT (10/9) 2:29 PM PDT (10/9)
Length of Visible Light 12h 22m
Length of Day
11h 33m
Waning Crescent, 35% of the Moon is Illuminated
Oct 9
Waning Crescent
Oct 15
New
Oct 21
First Quarter
Oct 29
Full
Nov 6
Last Quarter

Hourly Weather History & Observations

Time (PDT) Temp. Dew Point Humidity Pressure Visibility Wind Dir Wind Speed Gust Speed Precip Events Conditions
12:56 AM 71.1 °F 39.9 °F 32% 29.86 in 10.0 mi WSW 5.8 mph - N/A   Clear
1:56 AM 68.0 °F 45.0 °F 43% 29.86 in 10.0 mi South 4.6 mph - N/A   Clear
2:56 AM 64.9 °F 43.0 °F 45% 29.86 in 10.0 mi Calm Calm - N/A   Clear
3:56 AM 68.0 °F 39.9 °F 36% 29.86 in 10.0 mi Calm Calm - N/A   Clear
4:56 AM 64.0 °F 37.0 °F 37% 29.87 in 10.0 mi West 4.6 mph - N/A   Clear
5:56 AM 64.0 °F 37.9 °F 38% 29.88 in 10.0 mi South 4.6 mph - N/A   Clear
6:56 AM 59.0 °F 45.0 °F 60% 29.89 in 10.0 mi SSE 4.6 mph - N/A   Clear
7:56 AM 66.0 °F 39.9 °F 38% 29.91 in 10.0 mi Calm Calm - N/A   Clear
8:56 AM 75.0 °F 39.0 °F 27% 29.93 in 10.0 mi Calm Calm - N/A   Clear
9:56 AM 80.1 °F 39.9 °F 24% 29.93 in 10.0 mi ESE 3.5 mph - N/A   Clear
10:56 AM 84.0 °F 44.1 °F 25% 29.92 in 10.0 mi ENE 3.5 mph - N/A   Clear
11:56 AM 88.0 °F 39.0 °F 18% 29.90 in 10.0 mi East 6.9 mph - N/A   Clear
12:56 PM 90.0 °F 39.9 °F 17% 29.87 in 10.0 mi ENE 8.1 mph - N/A   Clear
1:56 PM 91.9 °F 41.0 °F 17% 29.83 in 10.0 mi Variable 3.5 mph - N/A   Clear
2:56 PM 93.9 °F 28.0 °F 10% 29.82 in 10.0 mi Calm Calm - N/A   Partly Cloudy
3:56 PM 93.0 °F 48.0 °F 21% 29.81 in 10.0 mi SE 4.6 mph - N/A   Partly Cloudy
4:56 PM 93.9 °F 45.0 °F 18% 29.80 in 10.0 mi SSW 4.6 mph - N/A   Partly Cloudy
5:56 PM 90.0 °F 39.9 °F 17% 29.81 in 10.0 mi WSW 17.3 mph - N/A   Partly Cloudy
6:56 PM 84.9 °F 41.0 °F 21% 29.82 in 10.0 mi WSW 17.3 mph - N/A   Partly Cloudy
7:56 PM 82.0 °F 46.0 °F 28% 29.85 in 10.0 mi WSW 18.4 mph 24.2 mph N/A   Clear
8:56 PM 79.0 °F 43.0 °F 28% 29.87 in 10.0 mi West 13.8 mph - N/A   Clear
9:56 PM 80.1 °F 39.9 °F 24% 29.88 in 10.0 mi WSW 15.0 mph - N/A   Clear
10:56 PM 75.9 °F 44.1 °F 32% 29.88 in 10.0 mi West 11.5 mph - N/A   Clear
11:56 PM 75.0 °F 44.1 °F 33% 29.88 in 10.0 mi WNW 9.2 mph - N/A   Clear